Regional Weather Roundup
Issued by NWS

Home | Current Version | Previous Version | Graphics & Text | Print | Product List | Glossary On
Versions: 1 2 3 4 5 6 7 8 9 10 11 12 13 14 15 16 17 18 19 20 21 22 23 24 25 26 27 28 29 30 31 32 33 34 35 36 37 38 39 40 41 42 43 44 45 46 47 48 49 50
000
ASUS44 KMEG 060110
RWRTN
TENNESSEE HOURLY STATE WEATHER ROUNDUP
NATIONAL WEATHER SERVICE MEMPHIS TN
700 PM CST MON DEC 05 2016

TNZ002-004-019-021-049-052-054-088>092-060200-
WEST TENNESSEE

CITY           SKY/WX    TMP DP  RH WIND       PRES   REMARKS
MEMPHIS INTL   CLOUDY    47  45  93 NE9       29.79S
NWS MEMPHIS      N/A     46 N/A N/A MISG        N/A
JACKSON        CLOUDY    46  44  93 NE8       29.81F
DYERSBURG      CLOUDY   N/A N/A N/A E9        29.81F
UNION CITY     CLOUDY    41  39  93 E6        29.82F
PARIS          CLOUDY    39  37  93 NE8       29.84F WCI  34
HUNTINGDON     CLOUDY    43  41  93 E9        29.82F
LEXINGTON      CLOUDY    45  45 100 N6        29.79F
$$

TNZ008-025-027-028-033-062-065-066-060200-
NORTH MIDDLE TENNESSEE

CITY           SKY/WX    TMP DP  RH WIND       PRES   REMARKS
NASHVILLE      CLOUDY    48  43  82 NE7       29.89R
PORTLAND       CLOUDY    45  41  87 E6        29.88S
CLARKSVILLE    CLOUDY    43  39  86 E7        29.87F
SMYRNA         CLOUDY    47  45  93 N3        29.89R
CROSSVILLE     CLOUDY    47  45  93 E8        29.87F
$$

TNZ061-075-076-078-094-096-097-060200-
SOUTH MIDDLE TENNESSEE

CITY           SKY/WX    TMP DP  RH WIND       PRES   REMARKS
FAYETTEVILLE   MOCLDY    50  50 100 N8        29.82F
TULLAHOMA      CLOUDY    48  48 100 N5        29.86R
WINCHESTER     PTCLDY    50  48  93 SE12      29.82F
MCMINNVILLE    CLOUDY    48  48 100 NE5       29.86R
COLUMBIA         N/A    N/A N/A N/A NE6       29.81F
SHELBYVILLE    CLOUDY    48  48 100 CALM      29.86F
$$

TNZ017-018-042-046-047-060200-
NORTHEAST TENNESSEE

CITY           SKY/WX    TMP DP  RH WIND       PRES   REMARKS
TRI CITIES     LGT RAIN  49  43  80 CALM      29.95R
ELIZABETHTON   CLOUDY    52  46  82 E5        29.93F
$$

TNZ012-013-036-069-073-074-060200-
CENTRAL EAST TENNESSEE

CITY           SKY/WX    TMP DP  RH WIND       PRES   REMARKS
KNOXVILLE      LGT RAIN  50  47  89 N6        29.92R
OAK RIDGE      LGT RAIN  50  46  86 E3        29.93F
DOWNTOWN KNOXV CLOUDY    50  50 100 CALM      29.94S
GATLINBURG     MOCLDY    46  46 100 CALM      29.93S
MORRISTOWN     CLOUDY    48  46  93 NE7       29.93R
JACKSBORO      CLOUDY    48  46  93 CALM      29.96F
$$

TNZ083-085-099-060200-
SOUTHEAST TENNESSEE

CITY           SKY/WX    TMP DP  RH WIND       PRES   REMARKS
CHATTANOOGA    LGT RAIN  50  48  93 NE5       29.90F FOG
$$

SKY/WX REPORTED AS FAIR MEANS FEW OR NO CLOUDS BELOW
12 THOUSAND FEET.




USA.gov is the U.S. government's official web portal to all federal, state and local government web resources and services.